| time (UTC) | temp F | wind direction | speed MPH | gust MPH | rain 1hr in | rain 24hr in | rain mn in | humidity % | barometer mb |
| 20260502194519 | 52 | 190 | 2.0 | 9.0 | 0.00 | 0.00 | 0.00 | 77 | 1010.3 |
| 20260502193007 | 53 | 178 | 4.0 | 8.0 | 0.00 | 0.00 | 0.00 | 77 | 1010.3 |
| 20260502191504 | 53 | 186 | 4.0 | 8.0 | 0.00 | 0.00 | 0.00 | 77 | 1010.5 |
| 20260502190003 | 53 | 260 | 2.0 | 8.0 | 0.00 | 0.00 | 0.00 | 77 | 1010.6 |
| 20260502184607 | 53 | 189 | 4.0 | 8.0 | 0.00 | 0.00 | 0.00 | 76 | 1010.7 |
| 20260502183101 | 52 | 210 | 2.0 | 10.0 | 0.00 | 0.00 | 0.00 | 76 | 1011.0 |
| 20260502181559 | 52 | 146 | 4.0 | 11.0 | 0.00 | 0.00 | 0.00 | 74 | 1011.0 |
| 20260502163101 | 56 | 215 | 3.0 | 11.0 | 0.00 | 0.00 | 0.00 | 70 | 1010.8 |
| 20260502161555 | 55 | 193 | 3.0 | 9.0 | 0.00 | 0.00 | 0.00 | 72 | 1010.9 |
| 20260502160156 | 56 | 173 | 2.0 | 7.0 | 0.00 | 0.00 | 0.00 | 74 | 1011.1 |
| 20260502151611 | 57 | 205 | 2.0 | 4.0 | 0.00 | 0.00 | 0.00 | 73 | 1011.5 |
| 20260502123048 | 51 | 168 | 2.0 | 7.0 | 0.00 | 0.00 | 0.00 | 78 | 1012.1 |
| 20260502121539 | 52 | 188 | 3.0 | 9.0 | 0.00 | 0.00 | 0.00 | 77 | 1012.1 |
| 20260502114534 | 50 | 218 | 3.0 | 7.0 | 0.00 | 0.00 | 0.00 | 79 | 1011.8 |
| 20260502113032 | 50 | 209 | 2.0 | 6.0 | 0.00 | 0.00 | 0.00 | 78 | 1011.6 |
| 20260502111532 | 49 | 155 | 2.0 | 8.0 | 0.00 | 0.00 | 0.00 | 79 | 1011.5 |
| 20260502110030 | 49 | 212 | 1.0 | 7.0 | 0.00 | 0.00 | 0.00 | 79 | 1011.8 |
| 20260502104532 | 49 | 146 | 1.0 | 3.0 | 0.00 | 0.00 | 0.00 | 79 | 1011.7 |
| 20260502103027 | 48 | 172 | 0.0 | 3.0 | 0.00 | 0.00 | 0.00 | 79 | 1011.2 |
| 20260502101527 | 48 | 202 | 1.0 | 4.0 | 0.00 | 0.00 | 0.00 | 79 | 1011.3 |
| 20260502091524 | 47 | 173 | 0.0 | 4.0 | 0.00 | 0.00 | 0.00 | 77 | 1011.3 |
| 20260502071515 | 48 | 160 | 0.0 | 1.0 | 0.00 | 0.00 | 0.00 | 74 | 1011.1 |
| 20260502070013 | 48 | 161 | 0.0 | 3.0 | 0.00 | 0.00 | 0.00 | 74 | 1011.0 |
| 20260502064512 | 49 | 204 | 2.0 | 5.0 | 0.00 | 0.00 | 0.00 | 73 | 1011.0 |
| 20260502063010 | 49 | 194 | 1.0 | 5.0 | 0.00 | 0.00 | 0.00 | 73 | 1011.2 |
| 20260502061512 | 49 | 209 | 0.0 | 4.0 | 0.00 | 0.00 | 0.00 | 74 | 1011.1 |
| 20260502060007 | 49 | 188 | 0.0 | 4.0 | 0.00 | 0.00 | 0.00 | 74 | 1011.2 |
| 20260502054505 | 48 | 219 | 1.0 | 3.0 | 0.00 | 0.00 | 0.00 | 75 | 1011.5 |
| 20260502053004 | 47 | 212 | 0.0 | 2.0 | 0.00 | 0.00 | 0.00 | 76 | 1011.4 |
| 20260502051508 | 47 | 215 | 0.0 | 0.0 | 0.00 | 0.00 | 0.00 | 76 | 1011.3 |
| 20260502050100 | 48 | 215 | 0.0 | 2.0 | 0.00 | 0.00 | 0.00 | 76 | 1011.5 |
| 20260502050002 | 48 | 215 | 0.0 | 2.0 | 0.00 | 0.00 | 0.00 | 76 | 1011.4 |
| 20260502044559 | 48 | 215 | 0.0 | 1.0 | 0.00 | 0.00 | 0.00 | 76 | 1011.5 |
| 20260502043102 | 48 | 215 | 0.0 | 2.0 | 0.00 | 0.00 | 0.00 | 76 | 1011.6 |
| 20260502041602 | 48 | 217 | 0.0 | 2.0 | 0.00 | 0.00 | 0.00 | 75 | 1011.6 |
| 20260502040058 | 49 | 222 | 0.0 | 3.0 | 0.00 | 0.00 | 0.00 | 74 | 1011.6 |
| 20260502034553 | 49 | 232 | 0.0 | 2.0 | 0.00 | 0.00 | 0.00 | 74 | 1011.5 |
| 20260502033052 | 49 | 213 | 0.0 | 1.0 | 0.00 | 0.00 | 0.00 | 73 | 1011.5 |
| 20260502031555 | 50 | 213 | 0.0 | 3.0 | 0.00 | 0.00 | 0.00 | 72 | 1011.4 |
| 20260502030052 | 50 | 219 | 0.0 | 3.0 | 0.00 | 0.00 | 0.00 | 71 | 1011.4 |
| 20260502024600 | 51 | 216 | 0.0 | 3.0 | 0.00 | 0.00 | 0.00 | 71 | 1011.1 |
| 20260502023049 | 51 | 196 | 0.0 | 3.0 | 0.00 | 0.00 | 0.00 | 70 | 1011.2 |
| 20260502021551 | 52 | 187 | 0.0 | 4.0 | 0.00 | 0.00 | 0.00 | 69 | 1011.1 |
| 20260502020047 | 51 | 194 | 1.0 | 4.0 | 0.00 | 0.00 | 0.00 | 69 | 1011.2 |
| 20260502014546 | 51 | 165 | 1.0 | 5.0 | 0.00 | 0.00 | 0.00 | 67 | 1011.1 |
| 20260502013045 | 52 | 193 | 0.0 | 3.0 | 0.00 | 0.00 | 0.00 | 63 | 1011.0 |
| 20260502011542 | 53 | 196 | 0.0 | 4.0 | 0.00 | 0.00 | 0.00 | 60 | 1010.9 |
| 20260502010040 | 53 | 207 | 0.0 | 6.0 | 0.00 | 0.00 | 0.00 | 60 | 1010.7 |
| 20260502004537 | 53 | 220 | 1.0 | 5.0 | 0.00 | 0.00 | 0.00 | 62 | 1010.3 |
| 20260502003035 | 53 | 179 | 0.0 | 2.0 | 0.00 | 0.00 | 0.00 | 62 | 1010.2 |
| 20260502001533 | 54 | 203 | 1.0 | 4.0 | 0.00 | 0.00 | 0.00 | 60 | 1009.9 |
| 20260502000036 | 54 | 154 | 0.0 | 3.0 | 0.00 | 0.00 | 0.00 | 60 | 1009.7 |
| 20260501234532 | 55 | 153 | 0.0 | 6.0 | 0.00 | 0.00 | 0.00 | 58 | 1009.4 |
| 20260501233032 | 56 | 181 | 1.0 | 7.0 | 0.00 | 0.00 | 0.00 | 56 | 1009.1 |
| 20260501231531 | 57 | 170 | 1.0 | 6.0 | 0.00 | 0.00 | 0.00 | 54 | 1008.9 |
| 20260501230031 | 58 | 202 | 1.0 | 9.0 | 0.00 | 0.00 | 0.00 | 53 | 1008.7 |
| 20260501224531 | 59 | 175 | 0.0 | 4.0 | 0.00 | 0.00 | 0.00 | 52 | 1008.6 |
| 20260501223030 | 60 | 308 | 0.0 | 6.0 | 0.00 | 0.00 | 0.00 | 37 | 1008.2 |
| 20260501221530 | 61 | 273 | 2.0 | 5.0 | 0.00 | 0.00 | 0.00 | 37 | 1008.2 |
| 20260501220030 | 61 | 167 | 1.0 | 5.0 | 0.00 | 0.00 | 0.00 | 36 | 1008.3 |
| 20260501214527 | 62 | 5 | 0.0 | 5.0 | 0.00 | 0.00 | 0.00 | 38 | 1008.2 |
| 20260501213027 | 62 | 279 | 1.0 | 8.0 | 0.00 | 0.00 | 0.00 | 37 | 1008.1 |
| 20260501211526 | 62 | 355 | 0.0 | 6.0 | 0.00 | 0.00 | 0.00 | 39 | 1008.1 |
| 20260501210026 | 62 | 169 | 2.0 | 10.0 | 0.00 | 0.00 | 0.00 | 38 | 1008.1 |
| 20260501204531 | 62 | 5 | 2.0 | 5.0 | 0.00 | 0.00 | 0.00 | 39 | 1008.0 |
| 20260501203023 | 62 | 19 | 1.0 | 9.0 | 0.00 | 0.00 | 0.00 | 39 | 1008.0 |
| 20260501201522 | 63 | 136 | 0.0 | 6.0 | 0.00 | 0.00 | 0.00 | 37 | 1008.0 |
| 20260501200025 | 62 | 322 | 2.0 | 9.0 | 0.00 | 0.00 | 0.00 | 39 | 1008.0 |